Location: Bullenkuhlen
(53.7689°N, 9.7495°E)
Time: 11:12:11
(UTC+00:00)

SL-16 R/B - Pass Details

Date: 09 April 2020
Orbit: 842 x 846 km, 71.0° (Epoch: 25 May)

Event Time Altitude Azimuth Distance (km) Brightness Sun altitude
Rises 21:27:19 0° 327° (NNW) 3,417 6.8 -23.6°
Reaches altitude 10° 21:29:51 10° 332° (NNW) 2,479 5.7 -23.8°
Maximum altitude 21:35:25 54° 50° (NE) 1,026 2.6 -24.2°
Enters shadow 21:36:45 44° 94° (E) 1,158 2.6 -24.3°
